TURKSAT 5B

Last updated on Tue Sep 22 2026 00:03:15 GMT+0000 (Coordinated Universal Time)

1 50212U 21126A 26264.49739072 .00000142 00000+0 00000+0 0 9998 2 50212 0.0755 334.4084 0001816 323.9335 283.0941 1.00273182 17266
UTC large
Height (km)
Speed (km/s)
/
Latitude / Longitude
Inclination (degrees)
Orbital Period (minutes)
Azimuth
Elevation
Range (km)
Doppler Factor

Next 0 passes for location: London (51.5072 / 0.1276)

No passes found over London.
TURKSAT 5B